Weather History for Big Bear City, CA

Change the Weather History Date:

Wednesday, June 13, 2012

  Actual Average (KBUO) Record (KBUO)
Temperature  
Mean Temperature 54 °F -  
Max Temperature 73 °F 81 °F 96 °F (2000)
Min Temperature 35 °F 53 °F 48 °F (1998)
Degree Days  
Heating Degree Days 11    
Growing Degree Days 4 (Base 50)    
Moisture  
Dew Point 21 °F    
Average Humidity 28    
Maximum Humidity 57    
Minimum Humidity 8    
Precipitation  
Precipitation 0.00 in - - ()
Sea Level Pressure  
Sea Level Pressure 30.10 in    
Wind  
Wind Speed 4 mph (West)    
Max Wind Speed 14 mph    
Max Gust Speed 18 mph    
Visibility 10 miles    
Events      
Averages and records for this station are not official NWS values.
T = Trace of Precipitation, MM = Missing Value Source: NWS Daily Summary

Daily Weather History Graph

Daily Weather History Graph

Search for Another Location

Airport:

Trip Planner

Search our weather history database for the weather conditions in past years. The results will help you decide how hot, cold, wet, or windy it might be!

Date:

Astronomy

Jun. 13, 2012 Rise Set
Actual Time 5:34 AM PDT 8:00 PM PDT
Civil Twilight 5:05 AM PDT 8:29 PM PDT
Nautical Twilight 4:29 AM PDT 9:05 PM PDT
Astronomical Twilight 3:50 AM PDT 9:45 PM PDT
Moon 1:39 AM PDT (6/13) 3:00 PM PDT (6/13)
Length of Visible Light 15h 24m
Length of Day
14h 25m
Waning Crescent, 28% of the Moon is Illuminated
Jun 13
Waning Crescent
Jun 19
New
Jun 26
First Quarter
Jul 3
Full
Jul 10
Last Quarter

Hourly Weather History & Observations

Time (PDT) Temp. Windchill Dew Point Humidity Pressure Visibility Wind Dir Wind Speed Gust Speed Precip Events Conditions
12:15 AM 46.4 °F - 23.0 °F 40% 30.18 in 10.0 mi Calm Calm - N/A   Clear
12:35 AM 46.4 °F - 21.2 °F 37% 30.18 in 10.0 mi Calm Calm - N/A   Clear
12:55 AM 46.4 °F - 21.2 °F 37% 30.17 in 10.0 mi Calm Calm - N/A   Clear
1:15 AM 44.6 °F - 21.2 °F 39% 30.17 in 10.0 mi Calm Calm - N/A   Clear
1:35 AM 44.6 °F - 23.0 °F 43% 30.16 in 10.0 mi Calm Calm - N/A   Clear
1:55 AM 42.8 °F - 19.4 °F 39% 30.16 in 10.0 mi Calm Calm - N/A   Clear
2:15 AM 42.8 °F - 17.6 °F 36% 30.16 in 10.0 mi Calm Calm - N/A   Clear
2:35 AM 41.0 °F - 17.6 °F 39% 30.16 in 10.0 mi Calm Calm - N/A   Clear
2:55 AM 41.0 °F 39.0 °F 17.6 °F 39% 30.15 in 10.0 mi West 3.5 mph - N/A   Clear
3:15 AM 39.2 °F 37.0 °F 14.0 °F 36% 30.14 in 10.0 mi West 3.5 mph - N/A   Clear
3:35 AM 37.4 °F - 12.2 °F 36% 30.13 in 10.0 mi Calm Calm - N/A   Clear
4:15 AM 37.4 °F - 12.2 °F 36% 30.12 in 10.0 mi Calm Calm - N/A   Clear
4:35 AM 37.4 °F - 10.4 °F 33% 30.12 in 10.0 mi Calm Calm - N/A   Clear
4:55 AM 35.6 °F - 12.2 °F 38% 30.12 in 10.0 mi Calm Calm - N/A   Clear
5:35 AM 35.6 °F 32.8 °F 14.0 °F 41% 30.12 in 10.0 mi West 3.5 mph - N/A   Clear
5:55 AM 35.6 °F - 14.0 °F 41% 30.12 in 10.0 mi Calm Calm - N/A   Clear
6:15 AM 37.4 °F - 17.6 °F 45% 30.11 in 10.0 mi Calm Calm - N/A   Clear
6:35 AM 41.0 °F 39.0 °F 23.0 °F 49% 30.12 in 10.0 mi West 3.5 mph - N/A   Clear
6:55 AM 44.6 °F 41.4 °F 30.2 °F 57% 30.11 in 10.0 mi West 5.8 mph - N/A   Clear
7:15 AM 50.0 °F - 32.0 °F 50% 30.11 in 10.0 mi West 4.6 mph - N/A   Clear
7:35 AM 51.8 °F - 32.0 °F 47% 30.11 in 10.0 mi West 5.8 mph - N/A   Clear
7:55 AM 55.4 °F - 28.4 °F 36% 30.11 in 10.0 mi West 5.8 mph - N/A   Clear
8:15 AM 60.8 °F - 28.4 °F 29% 30.11 in 10.0 mi West 5.8 mph - N/A   Clear
8:55 AM 66.2 °F - 21.2 °F 18% 30.11 in 10.0 mi West 9.2 mph - N/A   Clear
9:15 AM 68.0 °F - 14.0 °F 12% 30.11 in 10.0 mi SSW 5.8 mph - N/A   Clear
9:55 AM 69.8 °F - 8.6 °F 9% 30.10 in 10.0 mi SSW 5.8 mph - N/A   Clear
10:15 AM 69.8 °F - 5.0 °F 8% 30.11 in 10.0 mi South 8.1 mph - N/A   Clear
10:35 AM 71.6 °F - 8.6 °F 9% 30.11 in 10.0 mi WSW 5.8 mph - N/A   Clear
10:55 AM 71.6 °F - 12.2 °F 10% 30.11 in 10.0 mi West 10.4 mph - N/A   Clear
11:15 AM 71.6 °F - 12.2 °F 10% 30.11 in 10.0 mi West 11.5 mph - N/A   Clear
11:35 AM 71.6 °F - 10.4 °F 9% 30.11 in 10.0 mi West 10.4 mph - N/A   Clear
11:55 AM 71.6 °F - 10.4 °F 9% 30.11 in 10.0 mi West 9.2 mph - N/A   Clear
12:15 PM 73.4 °F - 12.2 °F 10% 30.11 in 10.0 mi WSW 9.2 mph - N/A   Clear
12:35 PM 71.6 °F - 12.2 °F 10% 30.10 in 10.0 mi WSW 10.4 mph - N/A   Clear
12:55 PM 73.4 °F - 14.0 °F 10% 30.10 in 10.0 mi West 11.5 mph 16.1 mph N/A   Clear
1:15 PM 73.4 °F - 17.6 °F 12% 30.09 in 10.0 mi West 10.4 mph - N/A   Clear
1:35 PM 73.4 °F - 17.6 °F 12% 30.09 in 10.0 mi West 12.7 mph - N/A   Clear
1:55 PM 71.6 °F - 17.6 °F 13% 30.09 in 10.0 mi West 13.8 mph - N/A   Clear
2:15 PM 73.4 °F - 19.4 °F 13% 30.09 in 10.0 mi West 12.7 mph 18.4 mph N/A   Clear
2:35 PM 73.4 °F - 19.4 °F 13% 30.08 in 10.0 mi West 13.8 mph - N/A   Clear
2:55 PM 73.4 °F - 17.6 °F 12% 30.08 in 10.0 mi West 11.5 mph - N/A   Clear
3:15 PM 71.6 °F - 19.4 °F 14% 30.07 in 10.0 mi West 11.5 mph - N/A   Clear
3:35 PM 71.6 °F - 21.2 °F 15% 30.07 in 10.0 mi West 12.7 mph - N/A   Clear
3:55 PM 71.6 °F - 21.2 °F 15% 30.07 in 10.0 mi West 13.8 mph - N/A   Clear
4:15 PM 71.6 °F - 23.0 °F 16% 30.07 in 10.0 mi West 12.7 mph - N/A   Clear
4:35 PM 71.6 °F - 21.2 °F 15% 30.07 in 10.0 mi West 13.8 mph - N/A   Clear
4:55 PM 71.6 °F - 19.4 °F 14% 30.06 in 10.0 mi West 13.8 mph 17.3 mph N/A   Clear
5:15 PM 71.6 °F - 23.0 °F 16% 30.06 in 10.0 mi West 13.8 mph - N/A   Clear
5:35 PM 69.8 °F - 23.0 °F 17% 30.06 in 10.0 mi West 11.5 mph 17.3 mph N/A   Clear
5:55 PM 69.8 °F - 28.4 °F 21% 30.06 in 10.0 mi West 10.4 mph - N/A   Clear
6:15 PM 68.0 °F - 28.4 °F 23% 30.05 in 10.0 mi West 12.7 mph - N/A   Clear
6:35 PM 68.0 °F - 30.2 °F 24% 30.05 in 10.0 mi West 9.2 mph - N/A   Clear
6:55 PM 66.2 °F - 28.4 °F 24% 30.05 in 10.0 mi West 8.1 mph - N/A   Clear
7:15 PM 64.4 °F - 30.2 °F 28% 30.05 in 10.0 mi West 9.2 mph - N/A   Clear
7:35 PM 62.6 °F - 30.2 °F 30% 30.05 in 10.0 mi West 6.9 mph - N/A   Clear
7:55 PM 60.8 °F - 32.0 °F 34% 30.05 in 10.0 mi WSW 3.5 mph - N/A   Clear
8:15 PM 60.8 °F - 30.2 °F 31% 30.05 in 10.0 mi SW 3.5 mph - N/A   Clear
8:35 PM 59.0 °F - 28.4 °F 31% 30.05 in 10.0 mi SSW 4.6 mph - N/A   Clear
8:55 PM 57.2 °F - 30.2 °F 36% 30.05 in 10.0 mi Calm Calm - N/A   Clear
9:35 PM 53.6 °F - 30.2 °F 41% 30.06 in 10.0 mi Calm Calm - N/A   Clear
9:55 PM 51.8 °F - 30.2 °F 44% 30.06 in 10.0 mi Calm Calm - N/A   Clear
10:15 PM 50.0 °F - 30.2 °F 47% 30.07 in 10.0 mi Calm Calm - N/A   Clear
10:35 PM 50.0 °F - 28.4 °F 43% 30.07 in 10.0 mi Calm Calm - N/A   Clear
10:55 PM 48.2 °F - 28.4 °F 46% 30.06 in 10.0 mi Calm Calm - N/A   Clear
11:15 PM 46.4 °F - 26.6 °F 46% 30.06 in 10.0 mi Calm Calm - N/A   Clear
11:35 PM 46.4 °F - 26.6 °F 46% 30.06 in 10.0 mi Calm Calm - N/A   Clear
11:55 PM 46.4 °F - 26.6 °F 46% 30.06 in 10.0 mi Calm Calm - N/A   Clear